GFSCGP_250_spd_336.txt.gz
Wind_Speed
3 7 12 9 3 7 8 11 24 17 17 17 15 16 16 12 12 10 9 11 14 20 25 30 32 32 31 32 35 39 44 49 44 46 49 49 50 50 55 54 55 54 55 56
11 2 10 15 15 15 9 13 19 23 22 22 22 19 18 21 21 20 22 23 23 25 28 31 34 38 33 34 38 39 47 50 48 46 52 50 49 52 53 55 54 54 55 56
11 6 7 7 12 11 8 14 21 27 27 23 24 30 34 31 24 22 24 27 27 29 27 29 30 34 41 41 42 42 51 50 49 48 51 50 50 54 54 57 55 56 54 56
20 10 2 8 15 12 12 16 20 23 28 24 18 24 37 34 35 37 38 35 32 31 30 27 28 31 35 37 44 47 50 51 51 50 54 51 45 48 51 53 57 59 57 56
20 20 22 14 16 12 13 15 18 20 26 24 22 24 38 35 35 39 40 39 41 41 41 42 39 40 41 41 44 48 52 53 53 54 53 54 50 47 48 49 55 58 61 59
16 16 19 21 19 20 17 11 15 19 20 24 30 35 35 33 34 38 45 46 41 41 44 45 41 46 46 48 44 51 53 54 51 55 54 55 53 56 48 51 55 54 58 60
24 20 17 18 20 21 22 18 20 22 25 26 34 33 33 37 36 43 45 44 43 41 40 44 44 45 49 50 48 50 51 52 53 54 55 54 52 53 52 57 52 52 55 58
25 22 25 21 20 16 24 24 25 26 31 31 31 36 32 36 42 41 45 45 47 48 43 44 46 45 48 50 55 55 55 52 52 53 54 52 52 55 49 56 57 57 56 57
28 21 25 27 28 28 25 30 27 28 30 28 31 35 37 40 43 46 49 52 50 47 51 47 42 47 47 50 53 55 53 55 54 55 54 53 54 60 56 55 61 57 56 60
26 23 25 26 27 30 32 33 34 35 36 34 27 39 37 39 44 51 46 49 47 45 47 49 47 48 50 54 54 53 53 56 58 59 54 55 56 54 55 57 59 58 56 58
25 26 26 28 26 26 27 30 28 31 35 37 38 42 39 41 44 39 42 52 39 52 53 51 49 51 52 55 54 52 56 57 59 62 57 57 58 55 58 59 60 58 54 59
23 26 26 24 28 27 28 33 31 29 33 32 36 37 35 35 38 38 45 43 48 58 55 56 50 52 54 56 53 54 55 55 59 59 58 55 61 60 57 58 58 57 54 64
25 27 27 25 26 19 22 30 31 32 33 24 38 39 35 35 32 41 41 34 44 50 62 66 58 53 56 57 59 56 58 61 60 60 58 62 64 60 58 55 58 57 58 65
28 28 28 28 28 26 27 30 32 32 34 36 38 40 37 36 32 27 32 48 66 65 63 65 65 57 55 57 56 57 60 61 61 60 61 61 56 57 58 55 60 62 64 62
29 29 28 31 31 31 32 34 36 38 38 38 38 42 37 32 29 23 31 33 33 53 56 59 61 61 56 58 57 59 61 62 61 61 61 62 65 64 64 61 65 62 63 61
31 32 32 33 32 34 36 35 37 38 41 38 39 42 44 37 31 35 29 12 22 48 67 58 56 58 59 60 61 61 62 62 60 61 65 63 65 66 68 65 66 65 62 61
31 32 32 33 32 33 35 35 36 39 39 38 39 41 42 44 39 39 35 41 56 62 62 61 61 61 63 61 62 62 64 67 67 66 68 70 72 70 68 68 68 68 64 57
30 30 31 32 34 33 35 34 35 37 41 37 42 44 46 45 42 44 45 46 51 55 58 59 60 60 62 63 63 65 65 66 69 71 71 75 75 73 71 70 64 55 51 46
28 30 30 29 30 31 36 30 36 47 40 39 44 49 48 52 48 50 49 51 53 55 57 58 57 58 61 62 63 64 68 71 71 73 76 80 73 65 60 57 49 46 42 38
34 31 34 34 32 35 38 34 41 35 41 49 54 47 58 60 58 57 56 57 57 58 57 57 58 58 61 65 67 71 72 72 74 79 79 70 60 51 51 46 39 39 36 38
36 30 42 38 38 34 37 33 32 30 25 43 48 62 61 60 61 58 58 58 57 57 56 58 56 57 61 66 69 72 75 73 69 64 57 54 47 45 41 33 34 35 38 40
44 46 42 38 36 48 49 38 36 33 39 57 66 64 66 62 60 60 61 60 54 54 56 57 59 64 63 71 74 61 52 62 62 55 45 40 36 31 30 30 32 35 36 33
27 13 32 37 46 51 53 56 59 60 63 62 60 61 64 65 62 62 59 54 53 52 54 56 58 57 64 69 50 52 45 57 52 42 36 35 33 32 31 31 31 33 36 38
48 58 56 61 62 54 55 58 67 71 66 54 55 60 63 65 64 63 57 49 49 50 52 56 49 56 71 51 39 51 44 53 46 37 36 35 33 32 32 33 35 38 45 48
57 62 63 63 60 68 66 56 34 51 37 55 70 65 64 63 63 55 52 50 49 49 49 46 54 59 62 40 28 29 47 42 34 39 36 36 36 37 39 43 45 48 51 53
62 60 62 58 54 61 59 50 63 73 75 70 70 66 64 63 53 49 49 49 50 50 48 46 59 56 48 37 33 34 36 38 39 40 40 41 42 44 46 48 51 55 57 58

GFSCGP_250_spd_339.txt.gz
Wind_Speed
10 7 8 11 5 11 7 11 10 24 25 22 18 19 24 26 23 23 27 28 29 29 30 30 29 30 28 30 35 40 43 45 46 47 48 49 51 53 52 49 49 52 50 48
11 7 5 10 6 10 14 13 20 26 28 29 11 13 26 37 33 30 31 37 41 39 36 36 39 39 40 39 41 44 46 46 49 49 50 50 52 53 51 49 50 54 49 47
15 15 16 8 9 12 10 8 19 24 21 25 22 17 29 35 34 32 32 37 43 44 43 42 41 43 45 40 43 46 48 48 50 48 50 51 55 53 51 49 48 52 52 53
20 18 12 12 17 12 9 9 16 21 18 20 23 23 36 28 29 35 32 37 40 43 43 44 46 42 45 43 45 47 51 55 52 49 52 50 54 54 53 50 51 54 54 56
18 19 20 21 21 19 10 13 10 14 21 18 21 25 19 12 35 39 35 38 37 40 46 48 47 45 46 46 48 50 53 54 53 50 50 53 60 52 51 55 53 51 58 55
24 17 14 19 19 20 20 20 21 17 21 23 25 31 34 34 37 38 35 33 39 44 43 42 40 45 47 47 49 51 53 53 52 50 54 59 60 55 52 53 51 55 57 59
25 22 20 21 18 17 23 26 19 20 25 22 23 27 30 34 39 42 41 41 39 38 42 36 42 47 50 47 50 55 56 57 58 54 58 60 62 58 54 53 57 57 57 56
24 22 25 25 23 25 22 29 31 26 28 30 37 36 24 35 40 42 37 47 39 35 38 44 46 54 54 56 58 58 57 56 61 60 60 62 61 59 58 58 63 58 53 55
25 26 31 29 24 24 26 27 29 35 36 33 35 31 25 32 32 17 24 52 46 42 47 46 44 57 55 62 60 60 57 60 61 63 60 61 63 59 58 59 59 53 51 55
24 28 25 28 24 24 26 25 24 28 29 32 34 34 32 31 35 30 37 41 46 47 45 43 51 57 54 60 63 61 60 62 61 61 62 64 63 63 60 61 58 56 55 57
30 28 23 26 24 29 29 25 15 29 34 33 34 36 26 32 37 37 39 40 40 43 47 60 60 56 53 53 58 57 59 63 64 63 65 65 64 62 61 63 61 64 63 62
23 23 21 22 22 26 26 23 25 28 25 29 35 40 34 36 40 43 43 42 36 33 30 42 49 49 39 62 60 63 64 66 68 68 68 65 67 65 65 67 65 65 67 66
21 21 23 25 26 25 26 28 30 33 32 31 37 38 38 35 38 37 40 42 38 31 10 44 48 53 52 71 65 68 70 68 67 66 66 69 69 70 69 69 69 70 72 69
22 22 23 25 25 24 27 28 29 31 35 37 38 36 35 37 38 35 35 38 38 26 19 36 22 44 74 72 70 72 74 72 71 70 70 69 71 72 72 71 71 73 76 66
24 24 24 25 27 28 28 31 31 33 35 36 36 36 33 33 35 36 39 37 34 25 28 40 53 67 80 75 75 74 73 72 72 72 73 75 77 77 76 75 74 73 66 53
26 26 26 27 27 28 28 27 29 31 34 35 36 39 36 29 33 33 38 44 44 43 39 46 60 70 72 73 72 72 72 72 74 75 77 77 76 74 71 65 58 52 49 44
24 24 23 25 25 26 26 26 28 29 34 35 45 40 31 34 43 41 50 55 55 54 54 58 62 66 69 70 70 69 70 72 74 75 72 63 62 62 58 53 44 46 40 33
22 21 21 22 23 27 22 24 26 33 36 36 38 37 48 37 39 48 59 63 65 65 63 65 66 67 66 64 64 64 66 67 67 61 56 61 56 54 50 44 39 35 28 31
23 22 24 24 26 28 30 26 31 36 33 46 41 45 43 34 47 60 64 64 64 65 66 66 67 63 61 61 61 61 61 54 49 49 56 56 52 43 39 39 36 32 32 33
24 28 31 28 28 30 33 36 29 26 42 44 38 38 33 51 60 69 68 64 64 65 66 70 62 59 58 56 56 52 59 52 49 46 54 48 42 40 39 38 38 37 37 39
30 31 33 36 38 41 34 34 36 43 54 48 50 54 57 62 60 63 58 67 65 65 68 67 61 58 55 57 55 58 66 53 45 51 45 41 43 42 42 43 43 43 45 47
34 32 32 32 31 18 16 28 43 60 66 57 61 64 61 58 57 49 61 66 68 70 69 64 58 56 54 52 56 58 60 52 46 44 44 45 43 46 46 45 45 45 46 48
42 38 39 30 27 38 46 44 57 63 49 61 39 29 33 39 46 61 66 59 59 62 60 53 51 53 55 51 56 50 52 48 49 47 47 48 47 44 42 42 46 49 50 51
51 42 44 39 40 39 45 48 47 47 54 28 33 41 63 61 65 77 69 60 58 56 56 52 52 52 48 52 51 46 48 52 52 50 47 46 44 44 47 48 48 49 51 52
51 49 48 44 43 50 47 31 32 40 60 54 65 74 49 66 69 69 64 62 61 61 54 51 49 51 48 51 50 44 50 49 46 45 44 44 46 46 48 50 51 53 55 55
48 48 45 48 44 41 39 33 21 46 53 41 38 48 63 69 70 65 64 65 64 59 53 51 49 51 48 49 43 46 47 46 43 42 45 45 46 47 48 52 58 60 60 63

GFSCGP_250_spd_342.txt.gz
Wind_Speed
7 7 4 1 2 4 1 3 6 9 14 19 5 6 17 30 23 23 24 29 32 31 34 36 39 41 39 41 39 41 43 44 46 47 45 47 44 48 57 54 45 45 48 48
13 6 10 11 9 6 4 7 9 16 17 14 19 14 17 26 20 20 22 25 32 30 32 37 40 41 40 42 44 44 46 45 47 47 49 46 47 52 58 57 50 47 49 51
21 19 18 13 17 13 12 10 18 23 23 22 18 18 27 24 9 24 34 32 34 34 36 39 37 33 34 37 43 45 48 49 48 50 53 52 54 57 59 59 55 51 51 53
19 16 22 21 15 20 24 13 18 23 26 27 23 24 21 27 13 17 35 43 41 38 43 42 35 30 35 37 42 48 55 57 50 54 55 55 56 59 59 56 56 54 53 54
24 21 20 23 19 19 21 20 20 20 26 25 28 28 26 22 17 29 38 38 36 35 44 46 35 40 45 49 50 53 55 63 58 56 56 57 60 60 59 59 57 56 56 58
26 26 23 24 22 20 19 17 21 21 24 25 26 26 28 35 35 32 29 34 26 33 39 46 45 45 44 46 51 57 60 60 57 55 56 58 60 61 61 60 58 56 56 53
30 28 26 24 23 22 22 26 28 27 30 28 25 27 34 32 30 27 30 35 31 38 44 44 39 38 46 47 48 52 50 53 55 58 61 63 65 64 62 60 58 57 57 60
24 25 26 27 25 28 27 27 29 28 29 30 34 29 30 29 32 29 28 29 37 41 46 45 42 34 42 50 48 42 47 60 61 63 67 67 67 68 67 64 64 63 62 60
22 23 26 26 26 25 23 24 29 30 30 29 22 29 33 30 27 28 30 32 38 39 43 43 38 33 38 46 47 54 58 68 78 76 71 70 71 70 70 69 68 67 67 66
23 23 23 27 27 26 23 26 28 30 31 29 32 35 31 33 37 38 36 35 32 32 38 36 33 29 34 42 54 59 60 69 84 85 79 79 77 77 77 74 72 72 72 71
23 27 28 32 29 25 23 25 24 25 23 27 26 32 33 33 37 40 36 35 36 30 30 38 33 27 29 37 48 59 73 80 87 83 81 79 77 78 78 77 78 77 74 70
25 26 27 26 23 25 27 27 27 27 25 28 30 32 33 36 37 37 34 34 35 33 33 23 19 24 37 46 49 61 73 78 82 76 75 76 78 82 78 74 71 68 63 57
23 24 24 23 23 26 27 28 28 31 30 32 30 30 29 31 34 33 30 27 29 33 28 24 21 34 49 51 61 69 77 75 69 69 72 76 81 77 65 67 66 60 58 49
24 24 26 25 24 25 28 29 30 30 29 28 25 29 31 32 31 24 28 29 34 43 51 49 48 48 53 56 61 67 71 70 67 69 73 76 73 59 62 63 57 48 47 43
27 25 25 26 28 29 28 28 27 23 24 25 25 30 34 33 30 29 33 33 33 46 55 54 53 55 58 59 62 66 63 61 63 66 68 67 63 57 59 52 47 47 45 40
26 26 27 26 26 26 26 26 25 23 25 27 30 28 38 40 41 44 41 34 37 54 62 61 59 73 65 63 63 61 59 57 60 59 65 58 53 57 51 47 48 47 45 44
24 22 24 23 23 23 22 26 28 26 27 30 28 33 43 47 42 39 44 49 52 61 64 64 66 80 68 64 60 58 57 58 51 57 57 53 55 50 48 48 47 48 47 45
23 21 21 23 21 23 27 27 28 31 33 38 26 31 47 58 49 52 45 48 62 67 63 61 77 76 70 62 56 54 52 50 54 58 50 53 49 51 48 50 51 49 47 46
22 21 21 24 25 28 28 32 32 36 40 39 34 44 48 54 55 50 59 54 54 56 58 72 76 79 70 58 53 55 53 51 54 51 51 54 55 53 51 47 44 43 45 47
23 22 24 27 28 29 31 37 43 36 39 42 39 46 56 42 36 49 37 55 67 57 62 72 76 66 66 61 58 55 51 50 51 48 54 52 49 47 43 42 46 46 50 52
28 28 28 26 27 29 27 31 24 21 34 40 41 56 48 47 45 44 40 62 67 61 72 77 71 71 70 62 58 57 51 50 51 48 52 46 44 43 46 48 47 48 51 55
35 34 34 33 35 32 33 33 28 38 40 41 45 53 58 28 37 41 48 67 53 68 67 69 71 74 67 59 57 55 52 54 47 50 50 44 42 45 47 47 47 49 53 57
38 37 40 40 38 38 37 41 43 45 36 49 51 39 43 39 40 49 64 65 53 66 73 72 70 70 66 59 57 57 54 45 48 51 46 44 45 47 47 46 49 52 55 57
43 45 49 49 48 47 46 47 46 44 43 46 37 40 45 50 56 63 56 46 59 67 67 64 67 65 62 56 57 52 41 44 49 43 44 46 49 47 46 48 50 54 55 59
45 48 51 52 51 49 50 52 48 44 39 38 37 50 58 55 56 53 53 59 65 68 65 64 63 63 55 54 46 39 41 42 39 42 44 46 48 48 48 50 54 56 57 61
50 53 55 58 61 60 58 56 55 51 46 55 59 59 57 66 59 63 70 69 67 67 64 60 67 59 52 45 37 35 37 40 42 44 45 47 48 49 51 54 55 58 62 66

GFSCGP_250_spd_345.txt.gz
Wind_Speed
5 5 8 3 7 11 13 12 12 18 23 20 18 15 14 21 21 22 23 29 35 38 35 38 41 42 40 32 32 34 37 46 44 49 51 48 48 50 53 53 52 55 56 53
14 10 10 12 11 14 14 12 21 18 20 25 27 17 20 19 22 15 30 31 37 44 45 35 37 38 43 40 44 44 41 46 46 48 45 47 52 55 56 58 57 56 57 57
17 15 19 16 18 14 19 23 17 23 22 29 26 23 25 23 23 24 33 35 37 50 50 34 34 40 42 45 43 45 41 39 41 40 47 53 58 64 63 61 60 61 59 57
20 14 17 16 22 19 15 17 18 22 25 25 23 25 25 24 24 35 31 37 43 40 45 37 39 44 43 41 42 50 45 49 47 43 51 64 67 74 72 68 71 63 63 63
27 23 22 21 18 21 19 20 21 20 24 26 31 32 30 26 28 35 35 34 32 41 41 44 49 48 40 45 43 50 48 58 54 52 62 66 71 78 84 82 76 69 68 65
21 23 30 28 26 25 22 22 23 28 29 31 33 33 32 33 39 35 38 38 37 43 44 47 46 41 38 40 46 55 54 57 59 64 69 72 74 81 91 85 82 73 72 70
29 24 28 31 25 24 22 27 30 29 28 29 32 33 34 32 31 36 37 38 39 41 41 40 40 39 39 38 45 44 48 53 67 66 72 79 85 85 86 81 74 74 75 71
27 22 25 23 25 22 22 26 27 27 26 29 27 30 26 31 33 31 32 35 35 37 37 41 41 40 29 23 23 47 58 65 72 75 77 82 78 80 74 73 74 73 64 65
29 31 31 25 22 22 23 27 28 26 29 28 26 24 29 26 28 33 33 32 34 35 34 39 43 34 30 13 37 52 60 71 77 77 75 76 71 70 72 71 70 62 65 65
27 28 28 24 22 23 25 31 27 23 26 29 29 30 31 32 31 32 32 31 29 24 26 30 32 32 29 26 39 46 60 72 75 76 76 69 69 68 68 68 64 62 59 57
25 27 26 24 25 30 32 27 24 26 26 26 29 29 34 37 34 33 35 32 26 16 17 23 27 34 33 33 39 57 65 71 74 75 69 66 65 66 65 59 59 56 52 48
23 22 26 22 22 24 24 24 28 30 27 28 30 34 33 30 30 32 36 31 26 25 29 31 39 48 49 53 54 69 73 75 67 63 60 59 60 62 55 56 53 48 47 46
23 22 22 22 21 24 27 29 29 30 31 30 29 28 27 27 29 36 34 27 34 39 40 40 48 58 58 56 62 68 78 68 59 55 54 54 59 57 53 51 49 46 49 47
26 25 25 23 22 24 27 28 29 28 29 28 28 28 25 26 27 32 41 35 34 36 40 44 47 60 52 64 71 76 67 58 56 54 49 52 54 49 47 50 48 48 45 44
28 28 28 26 26 28 29 27 27 28 28 29 29 27 30 31 32 39 49 33 35 38 44 45 46 47 57 67 69 68 64 57 56 51 47 50 49 51 50 48 45 40 40 43
30 30 30 28 29 29 27 25 27 26 27 32 32 33 37 34 34 44 47 35 39 45 41 47 50 55 59 69 73 69 60 56 55 49 46 47 48 51 46 41 39 41 44 43
28 27 26 26 27 27 27 24 26 30 29 28 31 37 38 35 41 46 45 43 47 46 42 55 61 66 65 74 76 67 58 54 53 48 45 44 47 46 41 40 42 42 42 43
26 26 27 28 28 28 27 27 29 31 32 38 40 39 39 43 40 48 56 43 51 47 51 54 68 75 69 71 75 62 61 59 52 48 43 42 46 41 40 43 43 43 44 48
28 28 26 27 29 31 32 31 34 34 33 33 26 27 41 39 35 51 57 41 42 49 50 55 68 72 68 73 70 67 64 56 55 47 38 43 43 40 43 45 43 43 47 50
28 28 28 27 29 31 33 37 36 36 36 38 30 34 48 40 42 48 44 43 53 51 55 61 71 66 70 73 70 71 63 59 49 38 38 42 41 41 44 44 44 45 48 52
30 30 31 32 34 36 37 40 42 42 40 43 41 43 46 29 40 56 52 48 55 57 63 68 62 66 75 74 70 71 66 55 43 38 39 39 42 45 45 46 47 49 52 53
33 33 34 36 38 39 41 42 45 48 49 49 50 51 47 53 54 58 45 47 55 56 58 59 68 73 71 73 70 66 59 50 39 38 39 43 45 45 45 46 47 49 51 56
34 36 39 41 42 43 44 46 50 53 51 51 52 53 51 55 54 54 49 56 56 57 59 64 71 68 68 68 65 60 52 44 40 40 43 44 43 45 46 47 49 51 54 59
38 38 41 44 47 46 48 50 53 55 56 56 63 61 58 57 56 56 55 62 59 61 59 66 68 64 63 62 62 55 46 41 40 41 45 46 45 45 45 47 50 52 56 60
44 44 46 48 51 50 53 56 59 62 61 66 67 60 55 54 58 60 59 60 61 63 64 66 59 56 56 65 63 52 41 39 40 43 46 47 45 45 47 49 51 54 58 62
46 47 48 49 52 54 57 59 65 63 59 57 55 52 49 49 50 52 52 53 53 55 60 55 46 50 59 64 65 48 40 39 40 45 48 48 48 48 48 51 53 57 61 62